This is the latest recevied weather packets stored in our database for station/object W2DRT. If no packets are shown the sender has not sent any weather packets the latest 10 day(s).
| Time | Temp. | Humidity | Pressure | Rain* | Wind** | Luminosity | Snow |
|---|---|---|---|---|---|---|---|
| 1777650207 | 14.44° C | 53% | 1014.6 hPa | - | - | - | - |
| 1777649602 | 13.89° C | 53% | 1014.6 hPa | - | - | - | - |
| 1777649000 | 13.33° C | 54% | 1015 hPa | - | - | - | - |
| 1777648399 | 13.33° C | 53% | 1015.3 hPa | - | - | - | - |
| 1777647798 | 13.89° C | 54% | 1015.3 hPa | - | - | - | - |
| 1777647197 | 13.33° C | 57% | 1015 hPa | - | - | - | - |
| 1777646595 | 13.33° C | 58% | 1015.3 hPa | - | - | - | - |
| 1777645995 | 12.78° C | 56% | 1015.3 hPa | - | - | - | - |
| 1777645394 | 12.22° C | 56% | 1015.3 hPa | - | - | - | - |
| 1777644791 | 12.22° C | 58% | 1015.3 hPa | - | - | - | - |
| 1777644191 | 12.22° C | 60% | 1015 hPa | - | - | - | - |
| 1777643586 | 11.67° C | 60% | 1015 hPa | - | - | - | - |
| 1777642985 | 11.67° C | 61% | 1015 hPa | - | - | - | - |
| 1777642385 | 11.11° C | 63% | 1015 hPa | - | - | - | - |
| 1777641783 | 11.11° C | 64% | 1015.3 hPa | - | - | - | - |
| 1777641179 | 10.56° C | 66% | 1015 hPa | - | - | - | - |
| 1777639977 | 10° C | 69% | 1015.3 hPa | - | - | - | - |
| 1777638770 | 9.44° C | 73% | 1015.3 hPa | - | - | - | - |
| 1777638169 | 8.89° C | 74% | 1015.3 hPa | - | - | - | - |
| 1777637566 | 8.89° C | 74% | 1015.3 hPa | - | - | - | - |
| 1777636961 | 8.33° C | 74% | 1015.3 hPa | - | - | - | - |
| 1777636359 | 8.33° C | 75% | 1015.3 hPa | - | - | - | - |
| 1777635755 | 7.78° C | 75% | 1015.3 hPa | - | - | - | - |
| 1777635154 | 7.78° C | 77% | 1015 hPa | - | - | - | - |
| 1777634554 | 7.22° C | 77% | 1015 hPa | - | - | - | - |
* Rain since midnight (hover to see other rain measurements)
** Current wind speed in m/s (hover to see current wind gust speed)